When you browse on this site, cookies collect data to enhance your experience and personalize the content and advertising you see.
Visit our Privacy Policy to learn more. By continuing to use the site, you agree to this use of cookies and data.

Hourly Weather Angus

Today, 10 August, Monday

Time Temperature Precipitation Wind Pressure Humidity
00:00 +23°C° 0 mm 2 mps 743 mmHg 94%
01:00 +23°C° 0 mm 2 mps 744 mmHg 94%
02:00 +23°C° 0.2 mm 2 mps 743 mmHg 94%
03:00 +23°C° 0.2 mm 2 mps 743 mmHg 94%
04:00 +22°C° 0.2 mm 3 mps 742 mmHg 94%
05:00 +24°C° 0.1 mm 3 mps 743 mmHg 93%
06:00 +24°C° 0.1 mm 3 mps 743 mmHg 92%
07:00 +25°C° 0 mm 3 mps 743 mmHg 91%
08:00 +27°C° 1.2 mm 3 mps 743 mmHg 85%
09:00 +28°C° 1.2 mm 4 mps 743 mmHg 80%
10:00 +29°C° 1.2 mm 4 mps 742 mmHg 75%
11:00 +30°C° 0.5 mm 4 mps 742 mmHg 71%
12:00 +32°C° 0.5 mm 4 mps 742 mmHg 68%
13:00 +32°C° 0.5 mm 4 mps 743 mmHg 64%
14:00 +33°C° 0.3 mm 4 mps 742 mmHg 64%
15:00 +33°C° 0.3 mm 4 mps 742 mmHg 64%
16:00 +33°C° 0.3 mm 4 mps 741 mmHg 64%
17:00 +30°C° 0.2 mm 4 mps 741 mmHg 70%
18:00 +29°C° 0.2 mm 3 mps 741 mmHg 75%
19:00 +28°C° 0.2 mm 3 mps 741 mmHg 81%
20:00 +26°C° 0.1 mm 3 mps 741 mmHg 83%
21:00 +25°C° 0.1 mm 3 mps 740 mmHg 84%
22:00 +23°C° 0.1 mm 4 mps 740 mmHg 86%
23:00 +24°C° 0.2 mm 3 mps 740 mmHg 85%

Tomorrow, 11 August, Tuesday

Time Temperature Precipitation Wind Pressure Humidity
00:00 +24°C° 0.2 mm 3 mps 740 mmHg 85%
01:00 +24°C° 0.2 mm 3 mps 740 mmHg 85%
02:00 +24°C° 0.2 mm 3 mps 739 mmHg 86%
03:00 +23°C° 0.2 mm 4 mps 739 mmHg 87%
04:00 +23°C° 0.2 mm 4 mps 739 mmHg 87%
05:00 +23°C° 1.2 mm 4 mps 739 mmHg 89%
06:00 +23°C° 1.2 mm 4 mps 739 mmHg 91%
07:00 +24°C° 1.2 mm 3 mps 739 mmHg 92%
08:00 +25°C° 0.6 mm 4 mps 739 mmHg 90%
09:00 +26°C° 0.6 mm 4 mps 739 mmHg 87%
10:00 +27°C° 0.6 mm 4 mps 740 mmHg 84%
11:00 +27°C° 0.2 mm 4 mps 740 mmHg 79%
12:00 +28°C° 0.2 mm 5 mps 740 mmHg 75%
13:00 +28°C° 0.2 mm 5 mps 740 mmHg 70%
14:00 +28°C° 0 mm 5 mps 740 mmHg 64%
15:00 +27°C° 0 mm 5 mps 740 mmHg 59%
16:00 +27°C° 0 mm 5 mps 740 mmHg 53%
17:00 +25°C° 0 mm 4 mps 741 mmHg 58%
18:00 +22°C° 0 mm 4 mps 741 mmHg 63%
19:00 +21°C° 0 mm 3 mps 741 mmHg 68%
20:00 +20°C° 0 mm 3 mps 742 mmHg 68%
21:00 +19°C° 0 mm 3 mps 742 mmHg 67%
22:00 +17°C° 0 mm 3 mps 743 mmHg 67%
23:00 +17°C° 0 mm 3 mps 743 mmHg 68%

Day after tomorrow, 12 August, Wednesday

Time Temperature Precipitation Wind Pressure Humidity
00:00 +17°C° 0 mm 2 mps 743 mmHg 69%
01:00 +17°C° 0 mm 2 mps 743 mmHg 69%
02:00 +16°C° 0 mm 2 mps 743 mmHg 69%
03:00 +16°C° 0 mm 2 mps 744 mmHg 69%
04:00 +16°C° 0 mm 2 mps 744 mmHg 68%
05:00 +18°C° 0 mm 1 mps 744 mmHg 68%
06:00 +19°C° 0 mm 1 mps 745 mmHg 69%
07:00 +20°C° 0 mm 1 mps 745 mmHg 69%
08:00 +22°C° 0 mm 1 mps 746 mmHg 62%
09:00 +25°C° 0 mm 1 mps 746 mmHg 56%
10:00 +27°C° 0 mm 1 mps 746 mmHg 49%
11:00 +28°C° 0 mm 1 mps 746 mmHg 47%
12:00 +29°C° 0 mm 1 mps 746 mmHg 45%
13:00 +30°C° 0 mm 2 mps 746 mmHg 43%
14:00 +29°C° 0 mm 2 mps 746 mmHg 46%
15:00 +29°C° 0 mm 2 mps 746 mmHg 49%
16:00 +29°C° 0 mm 3 mps 746 mmHg 52%
17:00 +27°C° 0 mm 2 mps 746 mmHg 60%
18:00 +25°C° 0 mm 2 mps 746 mmHg 68%
19:00 +23°C° 0 mm 2 mps 746 mmHg 76%
20:00 +22°C° 0 mm 1 mps 747 mmHg 79%
21:00 +21°C° 0 mm 1 mps 747 mmHg 82%
22:00 +20°C° 0 mm 1 mps 747 mmHg 85%
23:00 +19°C° 0 mm 1 mps 747 mmHg 85%

13 August, Thursday

Time Temperature Precipitation Wind Pressure Humidity
00:00 +19°C° 0 mm 1 mps 747 mmHg 85%
01:00 +18°C° 0 mm 1 mps 747 mmHg 85%
02:00 +18°C° 0 mm 1 mps 747 mmHg 86%
03:00 +18°C° 0 mm 1 mps 747 mmHg 86%
04:00 +18°C° 0 mm 1 mps 747 mmHg 86%
05:00 +19°C° 0 mm 1 mps 748 mmHg 84%
06:00 +19°C° 0 mm 1 mps 748 mmHg 82%
07:00 +20°C° 0 mm 1 mps 749 mmHg 79%
08:00 +21°C° 0 mm 2 mps 749 mmHg 72%
09:00 +24°C° 0 mm 2 mps 749 mmHg 65%
10:00 +26°C° 0 mm 2 mps 749 mmHg 58%
11:00 +27°C° 0 mm 2 mps 749 mmHg 56%
12:00 +28°C° 0 mm 3 mps 749 mmHg 53%
13:00 +29°C° 0 mm 3 mps 749 mmHg 50%
14:00 +29°C° 0 mm 3 mps 748 mmHg 50%
15:00 +29°C° 0 mm 2 mps 748 mmHg 50%
16:00 +29°C° 0 mm 2 mps 748 mmHg 49%
17:00 +28°C° 0 mm 2 mps 748 mmHg 56%
18:00 +26°C° 0 mm 2 mps 748 mmHg 63%
19:00 +24°C° 0 mm 2 mps 748 mmHg 70%
20:00 +23°C° 0 mm 2 mps 748 mmHg 71%
21:00 +21°C° 0 mm 2 mps 748 mmHg 72%
22:00 +20°C° 0 mm 2 mps 748 mmHg 72%
23:00 +20°C° 0 mm 2 mps 748 mmHg 75%

14 August, Friday

Time Temperature Precipitation Wind Pressure Humidity
00:00 +19°C° 0 mm 2 mps 748 mmHg 78%
01:00 +19°C° 0 mm 2 mps 747 mmHg 81%
02:00 +18°C° 0 mm 2 mps 747 mmHg 81%
03:00 +18°C° 0 mm 2 mps 747 mmHg 82%
04:00 +18°C° 0 mm 2 mps 747 mmHg 83%
05:00 +19°C° 0 mm 1 mps 747 mmHg 81%
06:00 +20°C° 0 mm 1 mps 748 mmHg 79%
07:00 +21°C° 0 mm 1 mps 748 mmHg 77%
08:00 +21°C° 0 mm 2 mps 748 mmHg 72%
09:00 +24°C° 0 mm 2 mps 748 mmHg 66%
10:00 +26°C° 0 mm 3 mps 748 mmHg 60%
11:00 +27°C° 0 mm 3 mps 748 mmHg 57%
12:00 +28°C° 0 mm 3 mps 747 mmHg 53%
13:00 +28°C° 0 mm 4 mps 747 mmHg 50%
14:00 +28°C° 0 mm 4 mps 747 mmHg 50%
15:00 +28°C° 0 mm 4 mps 746 mmHg 50%
16:00 +28°C° 0 mm 4 mps 746 mmHg 50%
17:00 +27°C° 0 mm 3 mps 746 mmHg 57%
18:00 +25°C° 0 mm 3 mps 745 mmHg 64%
19:00 +23°C° 0 mm 2 mps 745 mmHg 71%
20:00 +21°C° 0 mm 2 mps 745 mmHg 74%
21:00 +20°C° 0 mm 2 mps 745 mmHg 76%
22:00 +19°C° 0 mm 2 mps 745 mmHg 78%
23:00 +19°C° 0 mm 2 mps 745 mmHg 79%

15 August, Saturday

Time Temperature Precipitation Wind Pressure Humidity
00:00 +18°C° 0 mm 2 mps 745 mmHg 80%
01:00 +18°C° 0 mm 3 mps 745 mmHg 81%
02:00 +18°C° 0 mm 3 mps 744 mmHg 84%
03:00 +18°C° 0 mm 3 mps 744 mmHg 87%
04:00 +18°C° 0 mm 3 mps 744 mmHg 90%
05:00 +19°C° 0 mm 3 mps 744 mmHg 90%
06:00 +20°C° 0 mm 3 mps 745 mmHg 90%
07:00 +21°C° 0 mm 3 mps 745 mmHg 90%
08:00 +23°C° 0 mm 4 mps 745 mmHg 84%
09:00 +26°C° 0 mm 4 mps 745 mmHg 79%
10:00 +28°C° 0 mm 5 mps 745 mmHg 73%
11:00 +29°C° 0 mm 5 mps 745 mmHg 68%
12:00 +29°C° 0 mm 5 mps 744 mmHg 63%
13:00 +30°C° 0 mm 5 mps 744 mmHg 58%
14:00 +30°C° 0 mm 5 mps 744 mmHg 57%
15:00 +30°C° 0 mm 5 mps 744 mmHg 56%
16:00 +30°C° 0 mm 5 mps 743 mmHg 55%
17:00 +28°C° 0 mm 5 mps 743 mmHg 61%
18:00 +27°C° 0 mm 4 mps 743 mmHg 66%
19:00 +25°C° 0 mm 4 mps 743 mmHg 72%
20:00 +25°C° 0 mm 4 mps 743 mmHg 73%
21:00 +23°C° 0 mm 4 mps 743 mmHg 74%
22:00 +22°C° 0 mm 4 mps 743 mmHg 75%
23:00 +22°C° 0 mm 4 mps 743 mmHg 77%
Show more